Weather in Zinder

Niger     13°48′26″N   8°59′12″E
temp.,
°C
wind,
m/s
gust,
m/s
humid.,
%
clouds,
%
prec.,
mm/h
press.,
hPa
HPBL,
m
5 december, sun
sun501:00+21ne591941 0.0 1013133
04:00+20ne59185 0.0 1012148
07:00+19ne5131977 0.0 1014248
10:00+27ene810126 0.0 1015652
13:00+32ene77104 0.0 10111425
16:00+32ne551017 0.0 10091742
19:00+25ne511146 0.0 1012163
22:00+23ne5111464 0.0 1014196
6 december, mon
mon601:00+21nne512155 0.0 1014199
04:00+20nne5101611 0.0 1013155
07:00+19ne481785 0.0 1014147
10:00+27ene67125 0.0 1015557
13:00+32ne54115 0.0 10111223
16:00+32ne54115 0.0 10091417
19:00+26nne57145 0.0 101279
22:00+23ne59150 0.0 1014131
7 december, tue
tue701:00+21ne47175 0.0 101496
04:00+20ne47183 0.0 1014100
07:00+19ene492034 0.0 1015128
10:00+27ne791258 0.0 1016599
13:00+32ne77821 0.0 10121356
16:00+32ne7785 0.0 10111581
19:00+24ne511120 0.0 1013166
22:00+22ne615140 0.0 1016350
8 december, wed
wed801:00+20ne715140 0.0 1015382
04:00+18ne7141867 0.0 1015346
07:00+17ne614214 0.0 1016336
10:00+23ne9111252 0.0 1017627
13:00+29ene77872 0.0 10141074
16:00+29ne6685 0.0 10121230
19:00+23ne58100 0.0 1014116
22:00+20ne510120 0.0 1015153
9 december, thu
thu901:00+18ne48140 0.0 1015123
04:00+17ne49160 0.0 1014141
07:00+16ne48180 0.0 1015137
10:00+24ene68100 0.0 1016592
13:00+30ene5585 0.0 10121043
16:00+31ene4480 0.0 10101269
19:00+24ne45110 0.0 101256
22:00+21ne58115 0.0 1013111